Simultaneous Nadir Overpasses (SNOs) Predictions

Prediction of SNOs between GOES-16 and METOP-C Satellite Orbit:

Table of predicted SNOs for the next 14.0 days since TLE Epoch: 10/24/2020
Index Date Time (GOES-16) GOES-16 Lat,Lon METOP-C Lat,Lon Distance(km) Time Diff (sec)
1 10/25/2020 02:20:36 0.03, -75.17 0.60, -72.73 278.28 80
2 10/26/2020 14:39:29 -0.02, -75.19 0.42, -77.29 239.20 80
3 10/27/2020 14:18:49 -0.02, -75.19 -0.64, -72.29 330.38 80
4 10/29/2020 02:40:31 0.02, -75.19 -0.36, -76.89 194.07 80
5 10/30/2020 02:17:12 0.02, -75.19 0.76, -71.90 375.85 80
6 10/31/2020 14:36:06 -0.02, -75.23 0.27, -76.46 140.52 80
7 11/01/2020 14:18:07 -0.02, -75.24 -0.85, -71.47 429.68 80
8 11/03/2020 02:37:07 0.01, -75.24 -0.20, -76.05 93.89 80
9 11/04/2020 02:13:49 0.01, -75.25 0.93, -71.06 476.49 80
10 11/05/2020 14:32:43 -0.01, -75.29 0.05, -75.64 39.57 80
